Location: Fennell Observatory
(35.2597°N, 89.5125°W)
Time: 00:54:14
(UTC-06:00)

Daily predictions for brighter satellites

Satellite Brightness Start Highest point End
(mag) Time Altitude Azimuth Time Altitude Azimuth Time Altitude Azimuth
H-2A R/B 3.9 03:28:34 63° ESE 03:28:34 63° ESE 03:55:35 10° E
Milstar 3 4.0 03:56:39 37° SSE 03:56:39 37° SSE 04:02:33 10° E
Cosmos 2278 Rocket 4.2 04:12:46 10° SSE 04:17:15 25° ESE 04:21:45 10° NE
Cosmos 1709 Rocket 4.3 04:20:37 10° S 04:26:47 64° E 04:33:04 10° NNE
Cosmos 1844 Rocket 4.2 04:34:34 26° NNE 04:34:34 26° NNE 04:36:52 10° NNE
DELTA 2 R/B (1) 4.1 04:34:36 55° NE 04:34:36 55° NE 04:39:20 10° E
Cosmos 1844 3.9 04:49:36 58° N 04:49:36 58° N 04:54:17 10° NNE
ATLAS CENTAUR R/B 4.1 04:50:01 11° NNE 04:52:00 14° NE 04:54:16 10° E
Timation 1 Rocket 4.2 04:51:35 32° SSW 04:54:31 89° ESE 05:00:34 10° NNE
CZ-2C R/B 3.6 04:57:49 10° NNE 05:02:11 41° E 05:06:38 10° S
CZ-2C R/B 3.6 04:59:07 10° SSE 05:03:49 87° W 05:04:42 60° NNW
CZ-4C R/B 3.1 05:01:32 24° NNW 05:06:30 74° ENE 05:14:36 10° SE
SKYMED 2 4.0 05:02:32 10° SSE 05:06:47 61° ENE 05:09:28 22° N
Lacrosse 5 2.4 05:11:06 41° SW 05:11:06 41° SW 05:15:16 10° SSE
Cosmos 1741 Rocket 4.0 05:05:29 10° SSW 05:10:44 84° ESE 05:16:01 10° NNE
COSMOS 2406 3.1 05:10:19 36° NNW 05:12:45 81° WSW 05:18:23 10° SSE
Cosmos 1626 4.1 05:09:30 10° NNE 05:12:49 29° ENE 05:16:06 10° SE
Cosmos 2074 Rocket 4.4 05:07:53 10° S 05:13:59 62° E 05:20:07 10° NNE
Cosmos 332 Rocket 4.2 05:13:02 18° N 05:16:39 63° ENE 05:21:26 10° SSE
Meteor 1-21 Rocket 4.4 05:18:08 38° NW 05:19:51 49° W 05:25:17 10° SSW
Tiangong 2 2.0 05:24:55 39° NNE 05:24:55 39° NNE 05:27:19 10° NE
Cosmos 1076 Rocket 3.3 05:23:23 37° NNW 05:24:59 68° W 05:29:13 10° S
Radarsat Rocket 4.0 05:18:43 10° NNE 05:25:18 87° ESE 05:31:14 10° SSW
SL-14 R/B 3.1 05:26:31 59° WNW 05:26:52 63° W 05:30:39 10° S
Cosmos 2181 Rocket 3.9 05:22:46 10° NNW 05:28:57 63° W 05:35:00 10° S
SL-08 ROCKET BODY 4.3 05:23:41 10° SSW 05:29:24 55° W 05:35:10 10° N
USA 102 3.5 05:27:36 10° SSE 05:30:01 71° ENE 05:30:10 69° NE
EO 1 Del DPAF 3.1 05:35:14 10° SSE 05:39:01 85° WSW 05:42:40 11° NNW
GPS 2-04 Rocket1 2.7 05:40:01 36° W 05:41:41 85° N 05:45:58 10° E
IDEFIX/ARIANE 42P 2.7 05:37:56 10° N 05:43:03 51° WNW 05:48:06 10° SSW
MSX 3.7 05:38:49 10° NNE 05:44:35 84° WNW 05:50:19 10° SSW
Landsat 4 4.1 05:44:54 10° S 05:48:30 41° W 05:50:26 23° NW
Cosmos 1766 Rocket 3.5 05:47:36 10° NNW 05:51:57 61° W 05:56:17 10° S
Cosmos 1315 Rocket 3.3 05:50:25 23° NW 05:52:18 36° W 05:55:59 10° SSW
Okean 3 Rocket 4.4 05:53:10 22° NW 05:54:51 28° W 05:58:35 10° SSW
COSMO-SKYMED 1 3.2 05:50:55 10° SSW 05:54:52 34° W 05:58:05 14° NW
Thor Agena Rocket 4.5 05:51:03 10° SSE 05:56:05 51° ENE 06:01:11 10° N
Cosmos 2208 Rocket 4.1 05:50:43 10° NNW 05:56:12 86° WSW 06:01:38 10° SSE
Cosmos 2327 Rocket 4.4 05:50:55 10° SSW 05:57:05 68° W 06:03:12 10° N
Cosmos 2278 Rocket 2.6 05:55:48 10° SW 06:01:03 39° WNW 06:06:20 10° N
Cosmos 371 Rocket 3.6 05:58:00 10° NNW 06:02:41 47° WSW 06:07:20 10° S
Okean-O 3.5 05:59:19 10° NNW 06:03:00 26° WNW 06:06:40 10° SW
Cosmos 2154 Rocket 4.1 05:58:23 10° S 06:04:34 85° E 06:10:48 10° N
COSMOS 2441 4.4 06:00:16 10° N 06:04:56 53° WNW 06:09:36 10° SSW
Cosmos 1842 Rocket 3.5 06:05:50 10° S 06:10:17 80° W 06:14:48 10° N
SL-27 R/B 2.5 06:09:21 10° NNW 06:13:01 89° WSW 06:16:38 10° SSE
USA 229 DEB 3.8 06:06:42 10° SW 06:13:12 50° NW 06:19:54 10° NNE
USA 229 3.8 06:06:47 10° SW 06:13:18 51° NW 06:20:00 10° NNE
SMAP 3.3 06:09:38 10° NNE 06:14:18 75° ESE 06:18:56 10° S
CSL-04 Rocket 3.9 06:08:57 10° NNE 06:14:18 73° ESE 06:19:35 10° S
NOSS 3-1 (A) 3.9 06:10:11 10° SSW 06:15:40 63° ESE 06:21:46 10° NE
Cosmos 468 Rocket 4.0 06:12:02 10° NNW 06:17:15 84° WSW 06:22:29 10° SSE
Abrixas rocket 3.6 06:14:29 10° NW 06:17:21 30° NNE 06:20:17 10° E
Gbstr 26 Del rocket 4.0 06:12:36 10° SW 06:18:26 82° NW 06:25:41 10° NE
DELTA 2 R/B (1) 3.8 06:15:23 13° WNW 06:20:21 64° SSW 06:25:52 10° SE
SeaSat 1 4.2 06:23:44 10° NE 06:28:18 37° ESE 06:32:50 10° S
Cosmos 1174 3.5 06:26:11 10° NNW 06:30:05 83° ENE 06:33:18 10° SSE
ATLAS CENTAUR R/B 1.6 06:27:08 10° NW 06:31:13 54° WSW 06:35:31 10° SSE
Cosmos 1908 3.6 06:29:47 10° SSW 06:33:30 42° W 06:37:16 10° N
Cosmos 1486 Rocket 4.1 06:28:12 10° SSW 06:33:31 87° WNW 06:38:54 10° NNE
Shenzhou-11 Module 3.9 06:31:51 10° NW 06:34:05 19° N 06:36:20 10° NE
SL-8 R/B 3.8 06:30:04 10° WSW 06:34:48 60° NNW 06:39:34 10° NE
Cosmos 1763 Rocket 3.6 06:31:14 10° NNW 06:36:20 85° ENE 06:41:28 10° SSE
Milstar 3 3.5 06:32:33 10° WSW 06:39:15 49° S 06:45:57 10° ESE
CZ-2C R/B 3.7 06:37:09 10° NNW 06:40:06 17° WNW 06:43:06 10° WSW
Cosmos 1818 4.0 06:36:47 10° SSW 06:42:09 72° ESE 06:47:34 10° NNE
